FW8458 Weather Reports


time (UTC)temp
F
wind
direction
speed
knots
gust
knots
rain 1hr
in
rain 24hr
in
rain mn
in
humidity
%
barometer
mb
20260505094059 54 336 0.0 1.7 0.00 0.00 0.00 80
20260505093019 54 39 0.0 2.6 0.00 0.00 0.00 80
20260505092041 54 0.0 0.0 0.00 0.00 0.00 79
20260505091019 55 296 0.0 2.6 0.00 0.00 0.00 76
20260505090020 57 305 0.0 1.7 0.00 0.00 0.00 74
20260505085020 58 67 0.0 2.6 0.00 0.00 0.00 70
20260505084020 60 49 0.0 1.7 0.00 0.00 0.00 67
20260505083018 61 59 0.0 1.7 0.00 0.00 0.00 62
20260505082017 62 214 0.9 6.1 0.00 0.00 0.00 61
20260505081017 62 248 0.9 3.5 0.00 0.00 0.00 59
20260505080018 63 243 0.9 3.5 0.00 0.00 0.00 58
20260505075021 63 226 0.9 4.3 0.00 0.00 0.00 58
20260505074019 63 272 0.9 3.5 0.00 0.00 0.00 56
20260505073038 63 245 1.7 6.1 0.00 0.00 0.00 55
20260505072018 63 273 0.9 4.3 0.00 0.00 0.00 55
20260505071039 63 222 0.9 5.2 0.00 0.00 0.00 55
20260505070019 63 225 2.6 6.1 0.00 0.00 0.00 55
20260505065021 63 230 1.7 4.3 0.00 0.00 0.00 55
20260505064041 63 245 1.7 7.0 0.00 0.00 0.00 54
20260505063019 63 216 0.9 7.0 0.00 0.00 0.00 55
20260505062021 62 232 1.7 6.1 0.00 0.00 0.00 55
20260505061040 61 217 1.7 6.1 0.00 0.00 0.00 56
20260505060103 60 183 0.9 4.3 0.00 0.00 0.00 58
20260505055020 60 30 0.0 2.6 0.00 0.00 0.00 57
20260505054017 60 236 0.9 3.5 0.00 0.00 0.00 57
20260505053018 60 286 0.0 0.9 0.00 0.00 0.00 59
20260505052020 60 0.0 0.0 0.00 0.00 0.00 58
20260505051021 60 5 0.9 2.6 0.00 0.00 0.00 58
20260505041020 62 147 0.0 1.7 0.00 0.00 0.00 54
20260505040020 63 224 0.0 2.6 0.00 0.00 0.00 52
20260505035018 64 55 0.0 1.7 0.00 0.00 0.00 51
20260505034039 65 216 0.9 4.3 0.00 0.00 0.00 49
20260505033100 65 225 1.7 6.1 0.00 0.00 0.00 49
20260505032017 65 245 2.6 7.0 0.00 0.00 0.00 49
20260505031019 65 220 2.6 7.8 0.00 0.00 0.00 49
20260505030021 65 252 1.7 4.3 0.00 0.00 0.00 49
20260505025022 65 232 1.7 7.0 0.00 0.00 0.00 48
20260505024018 65 217 1.7 5.2 0.00 0.00 0.00 48
20260505023101 65 236 1.7 5.2 0.00 0.00 0.00 47
20260505022018 66 230 0.9 3.5 0.00 0.00 0.00 47
20260505021018 66 235 0.9 3.5 0.00 0.00 0.00 46
20260505020018 66 157 1.7 6.1 0.00 0.00 0.00 45
20260505015021 67 242 0.9 5.2 0.00 0.00 0.00 45
20260505014018 67 271 0.9 3.5 0.00 0.00 0.00 44
20260505013020 67 261 1.7 6.1 0.00 0.00 0.00 44
20260505012041 67 231 2.6 7.0 0.00 0.00 0.00 43
20260505011019 67 238 2.6 7.0 0.00 0.00 0.00 43
20260505010039 67 185 0.9 6.1 0.00 0.00 0.00 44
20260505005019 67 260 1.7 6.1 0.00 0.00 0.00 43
20260505004019 67 214 1.7 5.2 0.00 0.00 0.00 43
20260505003039 68 261 0.9 3.5 0.00 0.00 0.00 43
20260505002021 68 267 0.9 3.5 0.00 0.00 0.00 43
20260505001022 68 257 0.0 2.6 0.00 0.00 0.00 42
20260505000020 69 248 0.9 3.5 0.00 0.00 0.00 41
20260504235017 70 207 1.7 6.1 0.00 0.00 0.00 40
20260504234018 70 215 2.6 6.1 0.00 0.00 0.00 39
20260504233021 71 194 1.7 7.0 0.00 0.00 0.00 39
20260504232018 71 234 0.9 5.2 0.00 0.00 0.00 38
20260504231038 71 221 3.5 8.7 0.00 0.00 0.00 38
20260504230018 71 236 2.6 7.0 0.00 0.00 0.00 38
20260504225039 72 237 4.3 9.6 0.00 0.00 0.00 38
20260504224020 72 220 3.5 7.0 0.00 0.00 0.00 37
20260504223019 72 234 1.7 5.2 0.00 0.00 0.00 38
20260504222018 73 206 3.5 10.4 0.00 0.00 0.00 37
20260504221039 72 162 2.6 6.1 0.00 0.00 0.00 37
20260504220039 73 227 2.6 8.7 0.00 0.00 0.00 37
20260504215019 71 240 1.7 5.2 0.00 0.00 0.00 38
20260504214017 71 206 2.6 8.7 0.00 0.00 0.00 39
20260504213038 72 246 3.5 9.6 0.00 0.00 0.00 38
20260504212017 72 259 2.6 7.8 0.00 0.00 0.00 38
20260504211020 71 201 2.6 7.0 0.00 0.00 0.00 38
20260504210020 72 199 1.7 7.0 0.00 0.00 0.00 38
20260504205019 71 236 3.5 7.8 0.00 0.00 0.00 38
20260504204018 71 204 3.5 9.6 0.00 0.00 0.00 39
20260504203018 70 245 4.3 10.4 0.00 0.00 0.00 39
20260504202038 71 214 4.3 8.7 0.00 0.00 0.00 39
20260504201018 71 254 3.5 9.6 0.00 0.00 0.00 39
20260504200018 71 250 3.5 7.8 0.00 0.00 0.00 39
20260504195020 71 263 4.3 10.4 0.00 0.00 0.00 39
20260504194018 71 267 4.3 10.4 0.00 0.00 0.00 40
20260504193019 71 208 3.5 8.7 0.00 0.00 0.00 40
20260504192018 70 234 3.5 8.7 0.00 0.00 0.00 41
20260504191019 70 227 5.2 10.4 0.00 0.00 0.00 40
20260504190020 70 254 5.2 12.2 0.00 0.00 0.00 40
20260504185019 68 235 3.5 8.7 0.00 0.00 0.00 42
20260504184039 68 236 4.3 7.8 0.00 0.00 0.00 41
20260504183042 68 222 3.5 8.7 0.00 0.00 0.00 43
20260504182041 68 220 2.6 6.1 0.00 0.00 0.00 42
20260504181020 69 228 5.2 10.4 0.00 0.00 0.00 42
20260504180020 67 253 3.5 7.8 0.00 0.00 0.00 43
20260504175017 67 259 3.5 8.7 0.00 0.00 0.00 43
20260504174059 67 265 5.2 9.6 0.00 0.00 0.00 42
20260504173020 67 220 4.3 9.6 0.00 0.00 0.00 43
20260504172018 67 226 2.6 7.8 0.00 0.00 0.00 44
20260504171021 66 243 3.5 7.8 0.00 0.00 0.00 44
20260504151021 60 263 4.3 10.4 0.00 0.00 0.00 47
20260504141018 57 251 3.5 7.0 0.00 0.00 0.00 49